When you browse on this site, cookies collect data to enhance your experience and personalize the content and advertising you see.
Visit our Privacy Policy to learn more. By continuing to use the site, you agree to this use of cookies and data.
  • In Netherlands
  • List of Countries
  • For 7 days
  • Water Temperature
  • Weather Map
  • Weather Widgets
  • user-avatar
    Login

    Hourly Weather Choh

    Today, 20 October, Sunday

    Time Temperature Precipitation Wind Pressure Humidity
    00:00 +10°C° 0 mm 1 mps 632 mmHg 71%
    01:00 +10°C° 0 mm 1 mps 632 mmHg 71%
    02:00 +9°C° 0 mm 1 mps 632 mmHg 71%
    03:00 +8°C° 0 mm 0 mps 632 mmHg 73%
    04:00 +8°C° 0 mm 0 mps 632 mmHg 73%
    05:00 +8°C° 0 mm 0 mps 632 mmHg 74%
    06:00 +7°C° 0 mm 0 mps 633 mmHg 74%
    07:00 +9°C° 0 mm 0 mps 633 mmHg 68%
    08:00 +12°C° 0 mm 1 mps 634 mmHg 63%
    09:00 +13°C° 0 mm 1 mps 635 mmHg 57%
    10:00 +14°C° 0 mm 1 mps 635 mmHg 54%
    11:00 +15°C° 0 mm 2 mps 635 mmHg 51%
    12:00 +16°C° 0 mm 2 mps 636 mmHg 48%
    13:00 +16°C° 0.1 mm 2 mps 635 mmHg 49%
    14:00 +16°C° 0.1 mm 2 mps 635 mmHg 51%
    15:00 +15°C° 0.1 mm 2 mps 635 mmHg 53%
    16:00 +14°C° 0 mm 2 mps 635 mmHg 61%
    17:00 +12°C° 0 mm 1 mps 634 mmHg 70%
    18:00 +10°C° 0 mm 1 mps 634 mmHg 79%
    19:00 +9°C° 0 mm 0 mps 634 mmHg 80%
    20:00 +8°C° 0 mm 0 mps 633 mmHg 81%
    21:00 +8°C° 0 mm 0 mps 633 mmHg 82%
    22:00 +8°C° 0 mm 0 mps 633 mmHg 82%
    23:00 +8°C° 0 mm 0 mps 633 mmHg 82%

    Tomorrow, 21 October, Monday

    Time Temperature Precipitation Wind Pressure Humidity
    00:00 +7°C° 0 mm 0 mps 633 mmHg 82%
    01:00 +7°C° 0 mm 0 mps 633 mmHg 81%
    02:00 +8°C° 0 mm 1 mps 633 mmHg 81%
    03:00 +8°C° 0 mm 1 mps 633 mmHg 80%
    04:00 +8°C° 0 mm 1 mps 633 mmHg 80%
    05:00 +7°C° 0 mm 1 mps 633 mmHg 79%
    06:00 +7°C° 0 mm 1 mps 633 mmHg 79%
    07:00 +9°C° 0 mm 1 mps 634 mmHg 72%
    08:00 +11°C° 0 mm 1 mps 635 mmHg 66%
    09:00 +12°C° 0 mm 1 mps 635 mmHg 60%
    10:00 +13°C° 0 mm 1 mps 636 mmHg 58%
    11:00 +14°C° 0 mm 2 mps 636 mmHg 56%
    12:00 +15°C° 0 mm 2 mps 636 mmHg 54%
    13:00 +15°C° 0 mm 2 mps 636 mmHg 57%
    14:00 +14°C° 0 mm 2 mps 635 mmHg 60%
    15:00 +14°C° 0 mm 2 mps 635 mmHg 63%
    16:00 +13°C° 0 mm 2 mps 635 mmHg 72%
    17:00 +11°C° 0 mm 1 mps 634 mmHg 82%
    18:00 +8°C° 0 mm 0 mps 633 mmHg 92%
    19:00 +8°C° 0 mm 0 mps 633 mmHg 91%
    20:00 +8°C° 0 mm 0 mps 633 mmHg 91%
    21:00 +7°C° 0 mm 0 mps 633 mmHg 91%
    22:00 +7°C° 0 mm 0 mps 633 mmHg 90%
    23:00 +7°C° 0 mm 0 mps 633 mmHg 90%

    Day after tomorrow, 22 October, Tuesday

    Time Temperature Precipitation Wind Pressure Humidity
    00:00 +8°C° 0 mm 1 mps 633 mmHg 89%
    01:00 +8°C° 0 mm 1 mps 632 mmHg 87%
    02:00 +7°C° 0 mm 1 mps 632 mmHg 85%
    03:00 +7°C° 0 mm 1 mps 632 mmHg 83%
    04:00 +7°C° 0 mm 1 mps 632 mmHg 81%
    05:00 +7°C° 0 mm 1 mps 632 mmHg 79%
    06:00 +7°C° 0 mm 1 mps 632 mmHg 78%
    07:00 +9°C° 0 mm 1 mps 633 mmHg 72%
    08:00 +10°C° 0 mm 1 mps 633 mmHg 67%
    09:00 +12°C° 0 mm 1 mps 634 mmHg 61%
    10:00 +13°C° 0 mm 1 mps 634 mmHg 60%
    11:00 +14°C° 0 mm 2 mps 634 mmHg 58%
    12:00 +15°C° 0 mm 2 mps 635 mmHg 57%
    13:00 +14°C° 0 mm 2 mps 634 mmHg 60%
    14:00 +14°C° 0 mm 2 mps 634 mmHg 62%
    15:00 +14°C° 0 mm 2 mps 634 mmHg 65%
    16:00 +12°C° 0 mm 2 mps 633 mmHg 75%
    17:00 +10°C° 0 mm 1 mps 633 mmHg 84%
    18:00 +9°C° 0 mm 1 mps 632 mmHg 93%
    19:00 +7°C° 0 mm 0 mps 632 mmHg 92%
    20:00 +7°C° 0 mm 0 mps 632 mmHg 92%
    21:00 +7°C° 0 mm 0 mps 632 mmHg 91%
    22:00 +7°C° 0 mm 0 mps 632 mmHg 91%
    23:00 +7°C° 0 mm 0 mps 632 mmHg 91%

    23 October, Wednesday

    Time Temperature Precipitation Wind Pressure Humidity
    00:00 +6°C° 0 mm 0 mps 632 mmHg 91%
    01:00 +6°C° 0 mm 0 mps 631 mmHg 91%
    02:00 +6°C° 0 mm 0 mps 631 mmHg 91%
    03:00 +6°C° 0 mm 0 mps 631 mmHg 91%
    04:00 +6°C° 0 mm 0 mps 631 mmHg 90%
    05:00 +5°C° 0 mm 0 mps 631 mmHg 90%
    06:00 +5°C° 0 mm 0 mps 631 mmHg 89%
    07:00 +7°C° 0 mm 0 mps 632 mmHg 84%
    08:00 +9°C° 0 mm 1 mps 633 mmHg 79%
    09:00 +10°C° 0 mm 1 mps 633 mmHg 74%
    10:00 +11°C° 0 mm 1 mps 633 mmHg 71%
    11:00 +12°C° 0 mm 2 mps 633 mmHg 68%
    12:00 +13°C° 0 mm 2 mps 634 mmHg 66%
    13:00 +12°C° 0 mm 2 mps 633 mmHg 69%
    14:00 +12°C° 0 mm 2 mps 633 mmHg 72%
    15:00 +10°C° 0 mm 2 mps 633 mmHg 75%
    16:00 +9°C° 0 mm 2 mps 633 mmHg 81%
    17:00 +9°C° 0 mm 1 mps 632 mmHg 87%
    18:00 +8°C° 0 mm 1 mps 632 mmHg 92%
    19:00 +7°C° 0 mm 0 mps 632 mmHg 92%
    20:00 +7°C° 0 mm 0 mps 632 mmHg 92%
    21:00 +6°C° 0 mm 0 mps 632 mmHg 92%
    22:00 +6°C° 0 mm 0 mps 632 mmHg 91%
    23:00 +6°C° 0 mm 0 mps 632 mmHg 90%

    24 October, Thursday

    Time Temperature Precipitation Wind Pressure Humidity
    00:00 +6°C° 0 mm 0 mps 631 mmHg 90%
    01:00 +7°C° 0 mm 1 mps 631 mmHg 88%
    02:00 +6°C° 0 mm 1 mps 631 mmHg 86%
    03:00 +6°C° 0 mm 1 mps 631 mmHg 84%
    04:00 +6°C° 0 mm 1 mps 631 mmHg 82%
    05:00 +6°C° 0 mm 1 mps 631 mmHg 80%
    06:00 +6°C° 0 mm 1 mps 631 mmHg 77%
    07:00 +8°C° 0 mm 1 mps 631 mmHg 70%
    08:00 +9°C° 0 mm 1 mps 632 mmHg 63%
    09:00 +11°C° 0 mm 1 mps 633 mmHg 56%
    10:00 +12°C° 0 mm 1 mps 633 mmHg 54%
    11:00 +13°C° 0 mm 1 mps 633 mmHg 52%
    12:00 +14°C° 0 mm 2 mps 633 mmHg 50%
    13:00 +14°C° 0 mm 2 mps 633 mmHg 52%
    14:00 +14°C° 0 mm 2 mps 633 mmHg 54%
    15:00 +14°C° 0 mm 2 mps 632 mmHg 57%
    16:00 +12°C° 0 mm 1 mps 632 mmHg 66%
    17:00 +11°C° 0 mm 1 mps 631 mmHg 75%
    18:00 +8°C° 0 mm 0 mps 631 mmHg 84%
    19:00 +9°C° 0 mm 1 mps 631 mmHg 82%
    20:00 +9°C° 0 mm 1 mps 630 mmHg 80%
    21:00 +8°C° 0 mm 1 mps 630 mmHg 77%
    22:00 +8°C° 0 mm 1 mps 630 mmHg 74%
    23:00 +8°C° 0 mm 1 mps 630 mmHg 70%

    25 October, Friday

    Time Temperature Precipitation Wind Pressure Humidity
    00:00 +8°C° 0 mm 1 mps 630 mmHg 66%
    01:00 +8°C° 0 mm 1 mps 630 mmHg 62%
    02:00 +8°C° 0 mm 1 mps 629 mmHg 58%
    03:00 +7°C° 0 mm 1 mps 629 mmHg 54%
    04:00 +7°C° 0 mm 1 mps 629 mmHg 52%
    05:00 +7°C° 0 mm 1 mps 629 mmHg 51%
    06:00 +7°C° 0 mm 1 mps 629 mmHg 49%
    07:00 +9°C° 0 mm 1 mps 630 mmHg 44%
    08:00 +11°C° 0 mm 1 mps 631 mmHg 40%
    09:00 +12°C° 0 mm 0 mps 631 mmHg 36%
    10:00 +14°C° 0 mm 1 mps 632 mmHg 36%
    11:00 +15°C° 0 mm 1 mps 632 mmHg 36%
    12:00 +16°C° 0 mm 2 mps 632 mmHg 36%
    13:00 +15°C° 0 mm 2 mps 632 mmHg 39%
    14:00 +15°C° 0 mm 2 mps 632 mmHg 42%
    15:00 +15°C° 0 mm 2 mps 632 mmHg 45%
    16:00 +13°C° 0 mm 1 mps 631 mmHg 56%
    17:00 +11°C° 0 mm 1 mps 630 mmHg 68%
    18:00 +9°C° 0 mm 1 mps 630 mmHg 79%
    19:00 +9°C° 0 mm 1 mps 630 mmHg 78%
    20:00 +9°C° 0 mm 1 mps 630 mmHg 77%
    21:00 +9°C° 0 mm 1 mps 630 mmHg 76%
    22:00 +8°C° 0 mm 2 mps 629 mmHg 75%
    23:00 +7°C° 0 mm 2 mps 629 mmHg 75%
    Show more